[Date Prev][Date Next][Thread Prev][Thread Next][Date Index][Thread Index]

[jamsat-news:1113] jas2info #146



========================   最新情報   ==============================

        Last updated :Mon.28-Jun.-1999 21:30 (JST) #146

====================================================================
   
     衛星情報 FOシリーズの軌道要素、テレメトリ、QSOの状況等を
   まとめてみました.

  1)  FO−29(ふじ3号)は、6月28日(月)14:31(JST)の
     パスではJAアナログモードで運用されていました. 
       
 ■ 軌道要素1:「jamsat−keps:898」より
              SB KEPS @ AMSAT  $ORB99176.N
       2Line Orbital Elements 99176.AMSAT

 HR AMSAT ORBITAL ELEMENTS FOR AMATEUR SATELLITES IN NASA FORMAT
 FROM WA5QGD FORT WORTH,TX June 25, 1999
 SEND SUBSCRIBE/UNSUBSCRIBE TO majordomo@amsat.org ONLY
 BID: ORB99176.N
  
 DECODE 2-LINE ELSETS WITH THE FOLLOWING KEY:
 1 AAAAAU 00  0  0 BBBBB.BBBBBBBB  .CCCCCCCC  00000-0  00000-0 0  DDDZ
 2 AAAAA EEE.EEEE FFF.FFFF GGGGGGG HHH.HHHH III.IIII JJ.JJJJJJJJKKKKKZ
 KEY: A-CATALOGNUM B-EPOCHTIME C-DECAY D-ELSETNUM E-INCLINATION F-RAAN
 G-ECCENTRICITY H-ARGPERIGEE I-MNANOM J-MNMOTION K-ORBITNUM Z-CHECKSUM

 TO ALL RADIO AMATEURS BT

  FO-29
 1 24278U 96046B   99174.94214841 -.00000009  00000-0  24437-4 0 02550
 2 24278 098.5629 125.1859 0352197 076.7249 287.2909 13.52670451140722

 ■ 軌道要素2:「jamsat−keps:899」より                         
         SB KEPS @ AMSAT  $ORB99176.O
         Orbital Elements  99176.OSCAR

 HR AMSAT ORBITAL ELEMENTS FOR OSCAR SATELLITES
 FROM WA5QGD FORT WORTH,TX June 25, 1999
 SEND SUBSCRIBE/UNSUBSCRIBE TO majordomo@amsat.org ONLY
 BID: ORB99176.O
 TO ALL RADIO AMATEURS BT
 
  Satellite: FO-29
 Catalog number: 24278
 Epoch time:      99174.94214841
 Element set:    0255
 Inclination:      098.5629 deg
 RA of node:       125.1859 deg
 Eccentricity:    0.0352197
 Arg of perigee:   076.7249 deg
 Mean anomaly:     287.2909 deg
 Mean motion:   13.52670451 rev/day
 Decay rate:       -9.0e-08 rev/day^2
 Epoch rev:           14072
 Checksum:              348
 -----------------------------------------------------------
  2)FO−29(ふじ3号)の 6月28日(月)の14:31のパスでは
  JAアナログモードで運用されておりました.
  AS14102C1   26Jun99
  JST  12:56 - 13:07
  Freq. 435.805 - 788MHz

 HI HI AE 07 86 55 15 4D FF 1A 00 27 55 3F 8E 60 94 91 B0 A0 BD BB BC BC B9 
 HI HI AE 07 88 55 1A 4D FF 0D 07 II 67 3D 71 60 93 91 B0 68 BD BB BD BC B9 
 HI HI AE 07 88 55 1F 4D 0A 0D 00 27 77 37 7D 60 93 91 A0 6B BD BB BD BC B9 
 HI HI AE C7 88 55 04 4D FF 0D 00 27 74 32 7D 60 94 90 B0 5C BD BB BC BC B9 
 HI HI AE 07 88 55 0A 4D FF 0D 00 27 68 2F 82 49 95 92 A1 77 BD BB BC BC B9 
 HI HI AE C7 88 55 0F 4D FF 0D 00 27 5D 2E 83 60 94 91 B0 8B BC BB BC BC B9 
 HI HI AE 07 88 55 14 4D FF 0D 00 27 66 31 83 60 93 90 B0 BC BA BC BC BC B9  
 HI HI AE C7 88 55 19 4D FF 0D 00 27 83 33 8A 60 95 92 B0 93 BC BA BC BC B9 
 HI HI AE C7 88 55 1E 4D FF 0D 00 27 7C 30 91 60 94 91 B0 88 BC BA BC BC B9 
 HI HI AE C7 88 55 03 4D FF 0D 00 27 4E 2C 92 60 94 91 B0 93 BB BA BC BC B9
 HI HI AE C7 88 55 07 4D FF 0D 00 27 91 2E 93 60 93 93 B0 87 BB BA BC BC B9 
 HI HI AE C7 87 55 15 4D FF 0D 00 27 95 72 35 3B 8B 91 B0 93 BB BB BA BB BA 
 HI HI AE C7 88 55 1D 4D FF 0D 00 27 47 4E 93 35 93 91 B0 68 BC B9 BB BB BA 
 HI HI AE C7 88 55 02 4D FF 0D 00 27 A5 4D AE 60 97 92 
 
  AS14076C1   24Jun99
  JST  14:45 - 14:58

 HI HI AE 07 88 55 00 0D E6 D2 09 2D 69 4C 87 47 95 91 B0 8A BD BB BD BC B9  
 HI HI AE C7 88 55 00 0D E6 D2 09 5F 8D 46 83 60 94 91 B0 7B BD BD B0 BC B9  
 HI HI AE C7 88 55 00 00 DD D2 09 2F 6F 3E 81 60 94 90 B0 85 BD BD BC BC B9 
 HI HI AE C7 88 55 00 0D D6 D2 09 2E 54 39 84 61 94 91 B0 94 BD BB BC BC B9 
 HI HI AE 07 88 55 00 0D CC D2 09 2B 61 35 81 61 94    BD BB BC BC BC BC B9 
 HI HI AE C7 88 55 00 0D C0 D2 09 2C 66 30 7B 49 97 92 BD    BC BC BC BC B9 
 HI HI AE C7 88 55 00 0D C5 D2 09 55 66 2C 7A 60 92 91 A0 7A BC BB BC BC B9 
 HI HI AE C7 88 55 00 0D BD D2 09 28 73 2B 85 60 93 90 B0 7E BC BA BC BB B9 
 HI HI AE C7 88 55 00 0D BF D2 09 38 60 2B 8B 3F 98 92 B0 74 BC BA BC BC B9 
 HI HI AE C7 88 55 09 0D C0 D2 09 38 4F 2A 90 60 93 90 B0 7A BC BA BC BC B9 
 HI HI AE C7 88 55 00 0D C0 D2 09 38 62 28 91 5A 93 91 AP BF BA BA BB BC B9 
 HI HI AE C7 88 55 00 1D C5 D2 08 38 E9 8C 2C 91 60 91 B0 86 BC BA BB BB B9 
 HI HI AE C7 88 55 00 2E CF D2 09 39 7C 31 91 60 94 91 B0 7D BC BA BB BB B9 
 HI HI AE C7 88 55 00 2E DC D2 09 39 3B 38 90 60 93 91 B0 77 BC BA BB BB B9 
 HI HI AE C7 88 55 00 2E DC D2 09 39 41 37 8D 60 93 90 B0 7A BC BA BB BB B9 
 HI HI AE C7 88 55 00 2E ED D2 09 39 97 36 8E 60 93 91 B0 95 BB B9 BB BB B9 
 HI HI AE C7 88 55 00 2E 01 D3 09 39 9C 40 93 60 94 91 B0 73 BB B9 BB BB B9 
 HI HI AE C7 88 55 00 2E 17 D3 09 38 46 4E 93 60 95 93 B0 80 BB B9 BB BB B9 

    AS14075C1  24JUn99
   JST 13:06  



 HI HI AE C7 88 55 00 00 35 D3 48 D3 09 25 50 43 86 60 94 91 B0 84 BD BB BC BC B9                      
  
 3)テレメトリ換算値例  
  AS14102C1   26Jun99
  JST  12:56 - 13:07
  Freq. 435.805 - .788MHz
 
  アナログテレメトリの最初の行の換算値例
  
 テレメトリ	内   容	     換算値	単 位
 3C	磁気センサーZ軸=   41666.7	nT
 3D	磁気センサX軸	=   30882.3	nT
 4A	太陽電池発生電流=	1392.2 mA
 4B	B充放電電流	=    -118.4	mA
 4C	B端子電圧	=	  15.9	V
 4D	B中間端子電圧	=	   7.0	V
 5A	バス電圧	=	  17.3	V
 5B	JTA送信電力	=	 941.9	mW
 5C 	構体温度1	=	   8.5	℃
 5D	構体温度2	=	   9.3	℃
 6A	構体温度3	=	   8.9	℃
 6B	構体温度4	=	   8.9	℃
 6C	Bセル温度	=	  10.0	℃
  
  *計算処理は OFFICE 97 を使用.
  
 =====  FO - 29 (ふじ 3号)の自動解析プログラムの『英語版』について ========
 
   FO−29の自動解析プログラムの『英語版』についてJE9PEL/1 局 
  脇田 美根夫氏が投稿されてましたので転載させて頂きます.

  衛星FO-29 デジタルテレメトリ自動解析プログラムの『英語版』を
 開発しました。ファイル名は fo29tlme.zip で、バージョン番号は
  V5.03 です。 解凍した後の fo29tlme.exe を開くだけで動作する
 と思います。詳細については、同梱の英文の fo29tlme.txt を参照
 して下さい。

 公開先がわからないので、とりあえず、下記URLと JAMSATサーバー
 に登録しておきます。なお、このプログラムの『日本語版』の最新
 版の fo29tlm5.lzh V5.02 と、CW用の fo29cwt2.lzh V2.02 も、
 下記URLと JAMSATサーバーに登録してあります。

  英語版『fo29tlme.zip V5.03』を、6月26日付の新しいものに
 差し替えました。

  ----------------------------------------------
 Name : JE9PEL/1 脇田
 Mail : je9pel@jamsat.or.jp
 URL  : http://www.ne.jp/asahi/hamradio/je9pel/
 QTH  : Yokohama, Japan
 Date : 20 Jun. 1999
 ----------------------------------------------  
 ==============================================================================
  4)FO−20(ふじ2号)のCWテレメトリは6月15日(火)18:56(JST)の
     パスではテレメトリーが単一トーンの連続音から唸りを伴った連続音、さらにゆらぎの
     ある信号になり、いままでより若干信号が弱くなっていました.

 -----------------------------  FO - 20 軌道要素 ----------------------------------
 
 ■ 軌道要素1 :出典は「ふじ3号」に同じ. 
  
  FO-20
 1 20480U 90013C   99175.04252372 -.00000005  00000-0  55122-4 0 01776
 2 20480 099.0235 008.4603 0541274 149.0086 214.4165 12.83253331439219
 
 ■ 軌道要素2 :出典は「ふじ3号」に同じ.  
               
  Satellite: FO-20
 Catalog number: 20480
 Epoch time:      99175.04252372
 Element set:    0177
 Inclination:      099.0235 deg
 RA of node:       008.4603 deg
 Eccentricity:    0.0541274
 Arg of perigee:   149.0086 deg
 Mean anomaly:     214.4165 deg
 Mean motion:   12.83253331 rev/day
 Decay rate:       -5.0e-08 rev/day^2
 Epoch rev:           43921
 Checksum:              278
 
   =====================================================================

 5)JARL のホームページに新しい運用追加予定が記載されていましたのでご紹介します.
       ( http://www.jarl.or.jp/Japanese/3_Fuji/uy.htm )

        ■ ふじ3号/FO−29 ■  
  
   *** 運用予定について ***
    
   7月06日 〜 7月12日     デジタル系1200bpsメールボックス運用
   7月12日 〜 7月21日     アナログ運用
   7月21日 〜 7月26日     デジタル系1200bpsメールボックス運用
   7月26日 〜 8月09日     アナログ系運用
   
 なお,運用予定は都合により変更することがありますのでご了承願います。


 照会先 : lab@jarl.or.jp

 最新の情報はテレホンサービス(:03−3942−1000)をお聞きください。
   
  以後の運用に付きましては8月10日(火)にお知らせいたします。

        ■ ふじ2号/FO−20 ■      
            「ふじ2号」 現況                                                                                               
   JAS-1b/FO-20(ふじ2号)の不具合発生について
    JAS-1b(ふじ2号)のCWテレメトリ信号に,1997年10月12日12時
 (JST)の日本上空通過時,3桁の数字が繰り返されるはずが3個の長音の
  繰り返しとなっているという異常が発見されました。この不具合は次の通過時
  からは回復していましたが13日15時20分の通過時に再び観測されました。
  衛星のアナログ系中継モード動作は異常が無く,正常時のテレメトリ内容からは
  衛星の動作に異常は認められません。従って,直ちに衛星のミッションに影響す
  ることは無いと予想されますので,当面はアナログ系中継モードを継続します。
  衛星は既に打ち上げてから7年8ヶ月を経ておりますので,今後は監視を強化す
  る予定です。アマチュア各位のレポートをお待ちします.   
  
  以上  http://www.jarl.or.jp/Japanese/3_Fuji/fuji.htm
                                           
   =============   JAS-2 (ふじ3号)と現在までの情報   ===========
  
  A.電話によるふじ3号の運用情報
      社団法人日本アマチュア連盟によるサービス
           TEL .   03− 3942 − 1000
  B.アマチュア無線FAXサービス
      JARLによるふじ3号の軌道情報(オービットカレンダー)
         FAX No.  03− 3233 −0055
  C.WWWブラウザで情報を簡単に見れる人のためにJAS−2
     ふじ3号の衛星としての運用されるまでの名前)の概要、打ち上げ
     までの状況、運用中における状況を説明したホームページを紹介し
     ておきます.
     社団法人日本アマチュア無線連盟(JARL)のホームページ

          http://www.jarl.or.jp/Japanese/3_Fuji
 
     宇宙開発事業団(NASDA)ホームページ 
          http://www.nasda.go.jp/
         打上げ衛星 :地球観測プラットフォーム技術衛星(ADEOS) 
                       アマチュア衛星3号(JAS-2)
          http://yyy.tksc.nasda.go.jp/Home/Press/Press-j/jas-2_j.html        

  D.JAMSATによる軌道情報の活用
        JAMSATのホームページまたはjamsat−kepsの軌道要素より
      衛星の軌道情報を得る.
     JAMSATホームページ
               URL    http://www.jamsat.or.jp
       上記ホームページでは各地で行われるアマチュア通信衛星に関する
      ミューティングのお知らせや世界のアマチュア衛星に関する情報が
      満載されています.
   
 =========================================================================
       JAMSATのメンバーのご協力によりJH6MME(高山 秀造)が
    執筆・編集を担当しております.ご指摘の意見、疑問やこのようにしたら
    というアイデアがありましたら小さなことでもかまいませんので気軽に下
    記アドレスまでご連絡ください.jamsat−newsからjas2
    infoへの転載をJH4PHW局坂井さんに担当して頂いております.
                    E-mail : jh6mme@jamsat.or.jp : jh4phw@jamsat.or.jp
 ===============================   END  ===============================




------- End of Forwarded Message